F4ELU-13 Weather Reports


time (UTC)temp
C
wind
direction
speed
KPH
gust
KPH
rain 1hr
cm
rain 24hr
cm
rain mn
cm
humidity
%
barometer
mb
20260505004503 11 154 1.6 3.2 0.05 1.02 0.18 99 1010.0
20260505003603 11 0 0.0 0.0 0.10 1.02 0.18 99 1010.0
20260505002703 11 0 0.0 0.0 0.10 1.02 0.18 99 1010.2
20260505001803 12 0 0.0 0.0 0.05 0.99 0.15 99 1010.4
20260505000903 12 0 0.0 0.0 0.10 0.99 0.15 99 1010.3
20260505000003 12 180 0.0 3.2 0.15 0.99 0.15 98 1010.4
20260504235403 12 181 0.0 3.2 0.13 0.97 0.13 98 1010.4
20260504234503 12 194 0.0 6.4 0.13 0.97 0.13 97 1010.5
20260504233603 12 168 3.2 6.4 0.10 0.94 0.10 97 1010.6
20260504232703 12 203 0.0 9.7 0.10 0.94 0.10 96 1010.6
20260504231803 12 199 1.6 11.3 0.10 0.94 0.10 95 1010.8
20260504230903 12 225 0.0 3.2 0.05 0.89 0.05 94 1010.8
20260504230004 12 0 0.0 0.0 0.00 0.84 0.00 92 1010.7
20260504225403 12 0 0.0 0.0 0.00 0.84 0.84 92 1010.7
20260504224503 12 0 0.0 0.0 0.00 0.84 0.84 93 1010.7
20260504223603 12 0 0.0 0.0 0.00 0.84 0.84 92 1010.7
20260504222703 12 0 0.0 0.0 0.00 0.84 0.84 92 1010.7
20260504221803 12 0 0.0 0.0 0.00 0.84 0.84 92 1010.5
20260504220903 12 0 0.0 0.0 0.00 0.84 0.84 92 1010.6
20260504220003 12 0 0.0 0.0 0.00 0.84 0.84 92 1010.5
20260504215403 12 0 0.0 0.0 0.00 0.84 0.84 92 1010.5
20260504214503 12 0 0.0 0.0 0.00 0.84 0.84 92 1010.6
20260504213603 13 0 0.0 0.0 0.00 0.84 0.84 92 1010.6
20260504212703 13 0 0.0 0.0 0.00 0.84 0.84 90 1010.6
20260504211803 13 0 0.0 0.0 0.00 0.84 0.84 90 1010.7
20260504210903 13 0 0.0 0.0 0.00 0.84 0.84 91 1010.8
20260504210004 13 0 0.0 0.0 0.00 0.84 0.84 91 1010.7
20260504205403 13 0 0.0 0.0 0.00 0.84 0.84 92 1010.8
20260504204503 13 0 0.0 0.0 0.00 0.84 0.84 91 1010.8
20260504203603 13 0 0.0 0.0 0.00 0.84 0.84 90 1010.9
20260504202703 13 0 0.0 0.0 0.00 0.84 0.84 89 1010.9
20260504201803 13 0 0.0 0.0 0.00 0.84 0.84 88 1010.9
20260504200903 13 172 0.0 3.2 0.00 0.84 0.84 87 1010.9
20260504200003 14 174 1.6 6.4 0.00 0.84 0.84 85 1010.8
20260504195403 14 190 3.2 12.9 0.00 0.84 0.84 84 1010.9
20260504194503 14 188 3.2 11.3 0.00 0.84 0.84 84 1010.9
20260504193603 15 182 3.2 14.5 0.00 0.84 0.84 83 1010.8
20260504192703 15 183 4.8 12.9 0.00 0.84 0.84 83 1010.8
20260504191803 15 191 6.4 12.9 0.00 0.84 0.84 82 1010.7
20260504190903 15 185 3.2 9.7 0.00 0.84 0.84 83 1010.8
20260504190003 15 171 0.0 6.4 0.00 0.84 0.84 84 1010.8
20260504185403 14 0 0.0 0.0 0.00 0.84 0.84 86 1010.7
20260504184503 15 143 0.0 14.5 0.00 0.84 0.84 85 1010.8
20260504183603 14 171 8.0 14.5 0.00 0.84 0.84 84 1010.8
20260504182703 15 0 0.0 0.0 0.00 0.84 0.84 87 1010.7
20260504181803 15 127 0.0 3.2 0.00 0.84 0.84 86 1010.8
20260504180903 15 0 0.0 0.0 0.00 0.84 0.84 87 1010.7
20260504180003 15 90 0.0 3.2 0.00 0.84 0.84 86 1010.7
20260504175403 15 87 1.6 3.2 0.00 0.84 0.84 85 1010.7
20260504174503 15 98 0.0 6.4 0.00 0.84 0.84 86 1010.7
20260504173603 16 104 0.0 9.7 0.00 0.84 0.84 84 1010.7
20260504172703 16 105 0.0 9.7 0.00 0.84 0.84 83 1010.8
20260504171803 16 103 1.6 17.7 0.00 0.84 0.84 82 1010.7
20260504170903 16 99 6.4 17.7 0.00 0.84 0.84 80 1010.7
20260504150903 18 146 4.8 14.5 0.00 0.84 0.84 74 1010.9
20260504140903 17 183 3.2 17.7 0.00 0.84 0.84 81 1011.8
20260504081803 11 115 1.6 9.7 0.00 0.86 0.84 99 1013.0
20260504080903 11 90 0.0 3.2 0.00 0.86 0.84 99 1013.1
20260504050003 10 0 0.0 0.0 0.10 0.71 0.69 99 1012.9
20260504045403 10 0 0.0 0.0 0.15 0.71 0.69 99 1012.9
20260504044504 10 0 0.0 0.0 0.20 0.71 0.69 99 1012.9
20260504043603 10 0 0.0 0.0 0.28 0.69 0.66 99 1013.0
20260504042703 10 0 0.0 0.0 0.33 0.69 0.66 99 1013.0
20260504041803 10 0 0.0 0.0 0.43 0.69 0.66 99 1013.1
20260504040903 10 0 0.0 0.0 0.43 0.66 0.64 99 1013.1
20260504040004 10 0 0.0 0.0 0.43 0.64 0.61 99 1013.1
20260504035403 10 0 0.0 0.0 0.36 0.56 0.53 99 1013.1
20260504034503 10 0 0.0 0.0 0.30 0.51 0.48 99 1013.3
20260504033603 10 0 0.0 0.0 0.20 0.43 0.38 99 1013.3
20260504032703 10 225 0.0 6.4 0.15 0.36 0.33 99 1013.5
20260504031803 10 186 0.0 6.4 0.10 0.28 0.23 98 1013.4
20260504030903 10 194 0.0 6.4 0.05 0.23 0.20 97 1013.5
20260504030003 10 182 0.0 6.4 0.05 0.20 0.18 97 1013.3
20260504025403 10 176 0.0 6.4 0.10 0.20 0.18 96 1013.4
20260504024503 10 180 0.0 3.2 0.15 0.20 0.18 97 1013.3
20260504023603 10 90 0.0 3.2 0.18 0.20 0.18 98 1013.2
20260504022703 10 81 0.0 3.2 0.18 0.20 0.18 97 1013.4
20260504021803 10 109 0.0 3.2 0.15 0.18 0.15 96 1013.2
20260504020903 11 177 0.0 6.4 0.15 0.18 0.15 95 1013.3
20260504020003 11 171 0.0 9.7 0.13 0.15 0.13 94 1013.4
20260504015403 11 158 0.0 9.7 0.10 0.13 0.10 93 1013.4
20260504014503 11 157 3.2 9.7 0.03 0.05 0.03 90 1013.7
20260504013603 11 190 3.2 9.7 0.00 0.03 0.00 87 1013.7
20260504012703 11 178 3.2 9.7 0.00 0.03 0.00 86 1013.6
20260504011803 11 191 1.6 6.4 0.00 0.03 0.00 86 1013.5
20260504010903 11 181 0.0 6.4 0.00 0.03 0.00 83 1013.5
20260504010003 10 0 0.0 0.0 0.00 0.03 0.00 88 1013.3
20260504005403 10 0 0.0 0.0 0.00 0.03 0.00 90 1013.4